[[{"header":{"parameterUnit":"m.s-1","parameterCategory":1,"la1":30.2991,"la2":30.254,"lo1":-89.0895,"lo2":-89.0444,"dy":0.0017,"dx":0.0017,"nx":28,"ny":28,"refTime":"2023-11-14T03:00:00:Z","depth":0,"parameterNumber":2,"parameterNumberName":"U-component_of_WINDS"},"data":[0,0,0,0,0,0,0,0,0,0,0,0,0,0,0,0,0,0,0,0,0,0,0,0,0,0,0,0,0,0,0,0,0,0,0,0,0,0,0,0,0,0,0,0,0,0,0,0,0,0,0,0,0,0,0,0,0,0,-5.9048,-5.905,0,-5.9222,-5.9224,-5.9226,-5.9122,-5.9117,-5.9112,-5.9107,-5.9289,-5.9298,-5.9308,0,0,0,0,0,0,0,0,0,0,0,0,0,-5.8631,-5.8639,-5.9048,-5.905,-5.9052,-5.9221,-5.9224,-5.9226,-5.9123,-5.9117,-5.9111,-5.9105,-5.9286,-5.9297,-5.9308,0,0,0,0,0,0,0,0,0,0,0,0,0,-5.8809,-5.8642,-5.9048,-5.9021,-5.902,-5.9221,-5.9224,-5.9227,-5.9124,-5.9117,-5.9109,-5.9102,-5.9282,-5.9296,-5.931,-5.9547,0,0,-5.9353,-5.936,0,0,0,0,0,0,0,0,-5.8799,-5.8825,-5.9023,-5.9023,-5.9023,-5.9142,-5.9143,-5.9334,-5.9126,-5.9085,-5.9107,-5.9099,-5.9247,-5.9263,-5.9312,-5.9556,-5.9564,-5.9355,-5.9363,-5.9369,-5.9373,0,0,0,0,0,0,0,-5.8787,-5.8817,-5.9117,-5.9026,-5.9026,-5.9002,-5.9019,-5.9179,-5.9206,-5.9088,-5.9081,-5.9103,-5.9245,-5.9299,-5.9316,-5.9566,-5.9354,-5.9367,-5.9376,-5.9381,-6.0017,-6.0025,0,0,0,0,0,0,-5.8776,-5.8807,-5.9111,-5.9122,-5.889,-5.9015,-5.9034,-5.9112,-5.9204,-5.921,-5.9109,-5.9097,-5.9278,-5.9299,-5.9322,-5.9608,-5.9369,-5.9383,-5.9391,-6.0008,-6.0019,-6.0028,0,0,0,0,0,0,-5.8767,-5.8804,-5.9104,-5.8963,-5.8999,-5.9031,-5.9118,-5.9119,-5.9173,-5.9219,-5.9224,-5.9159,-5.9273,-5.9302,-5.9493,-5.9613,-5.9389,-5.9402,-5.9999,-6.0012,-6.0023,-6.0182,0,0,0,0,0,0,-5.8756,-5.8802,-5.8891,-5.8965,-5.9007,-5.9271,-5.9125,-5.9128,-5.9197,-5.9184,-5.9267,-5.9274,-5.927,-5.9472,-5.9507,-5.9629,-5.9413,-5.9988,-6.0004,-6.0019,-6.0166,-6.0198,-6.0226,0,0,0,0,0,-5.8741,-5.8929,-5.8896,-5.8934,-5.9119,-5.9278,-5.9302,-5.9292,-5.9207,-5.9298,-5.9329,-5.9271,-5.9594,-5.9492,-5.9531,-5.9659,-5.998,-6.0,-6.0018,-6.0153,-6.0192,-6.0225,0,0,0,0,0,0,-5.8869,-5.8938,-5.8903,-5.912,-5.9194,-5.926,-5.9375,-5.9334,-5.9434,-5.9418,-5.9402,-5.9422,-5.9621,-5.9658,-5.9544,-5.9895,-5.9774,-5.9801,-5.9864,-5.9901,-5.9931,-5.9919,-5.9425,0,0,0,0,0,-5.8922,-5.9044,-5.9098,-5.9285,-5.9324,-5.9344,-5.9412,-5.9398,-5.9475,-5.9506,-5.955,-5.9628,-5.9747,-5.9825,-5.9937,-6.017,-6.0189,-6.0277,-6.0307,-6.0332,-6.0356,-6.0486,-6.0527,-6.0089,-6.0089,-6.0089,0,0,-5.9034,-5.9087,-5.9165,-5.9312,-5.9368,-5.9497,-5.9371,-5.9511,-5.9608,-5.9528,-5.9711,-5.9746,-5.9832,-6.0046,-6.0142,-6.0083,-6.0481,-6.0356,-6.0375,-6.0386,-6.0509,-6.0551,-6.0587,-6.0102,-6.01,-6.0098,0,0,-5.9303,-5.9355,-5.9517,-5.9576,-5.9661,-5.9673,-5.9713,-5.9786,-5.9807,-5.999,-5.9933,-6.0048,-6.0252,-6.0317,-6.0376,-6.0672,-6.0625,-6.0709,-6.0866,-6.0992,-6.1027,-6.1057,-6.1166,-6.1205,-6.0733,-6.0733,-6.0733,0,-5.9432,-5.9622,-5.9606,-5.9752,-5.982,-5.9752,-5.9918,-5.9976,-6.0095,-6.0144,-6.0075,-6.0332,-6.0385,-6.0614,-6.0686,-6.0736,-6.0782,-6.07,-6.1023,-6.1053,-6.1082,-6.1185,-6.1226,-6.0743,-6.0742,-6.0741,-6.074,0,-5.9777,-5.9911,-6.0031,-6.0148,-6.0228,-6.0384,-6.0392,-6.0476,-6.0456,-6.0475,-6.0665,-6.0725,-6.085,-6.0903,-6.0883,-6.1131,-6.1092,-6.1024,-6.0902,-6.1134,-6.1231,-6.127,-6.0757,-6.0754,-6.0751,-6.0748,0,0,-6.0133,-6.0239,-6.0284,-6.0337,-6.0427,-6.0531,-6.0684,-6.0804,-6.0878,-6.0962,-6.1092,-6.1267,-6.1206,-6.1273,-6.1261,-6.1371,-6.1606,-6.129,-6.1292,-6.1349,-6.1886,-6.1939,-6.1985,-6.1574,-6.1581,-6.1587,-6.1879,0,-6.0411,-6.0677,-6.0667,-6.0917,-6.1041,-6.098,-6.1113,-6.1184,-6.1207,-6.1317,-6.1342,-6.1468,-6.1375,-6.1416,-6.1522,-6.1555,-6.1714,-6.1533,-6.1697,-6.1703,-6.168,-6.2035,-6.2091,-6.2364,-6.1917,-6.1923,-6.1928,0,-6.077,-6.0867,-6.1129,-6.1203,-6.1255,-6.1375,-6.1486,-6.1591,-6.1672,-6.1681,-6.1757,-6.1728,-6.1885,-6.1758,-6.1976,-6.1854,-6.192,-6.1946,-6.1956,-6.1974,-6.1832,-6.2065,-6.245,-6.2493,-6.1987,-6.1982,-6.1978,0,-6.1008,-6.1203,-6.1385,-6.1432,-6.1522,-6.1609,-6.1651,-6.1723,-6.1797,-6.1895,-6.1943,-6.2058,-6.2122,-6.2212,-6.2216,-6.2122,-6.2438,-6.231,-6.2452,-6.2453,-6.2523,-6.252,-6.2929,-6.2562,-6.2561,-6.256,-6.2559,0,-6.132,-6.1484,-6.1494,-6.1606,-6.1788,-6.1776,-6.1957,-6.199,-6.2056,-6.2176,-6.2129,-6.2242,-6.2238,-6.2354,-6.2358,-6.254,-6.2568,-6.2582,-6.2582,-6.2588,-6.2587,-6.2633,-6.2616,-6.2571,-6.2569,-6.2567,-6.2565,0,-6.1617,-6.163,-6.1825,-6.1895,-6.1916,-6.2048,-6.2108,-6.2216,-6.2234,-6.2387,-6.2422,-6.2452,-6.2586,-6.2598,-6.2753,-6.2756,-6.2978,-6.2955,-6.2951,-6.2948,-6.3091,-6.3079,-6.3547,-6.3609,-6.3199,-6.3202,-6.3206,0,-6.1817,-6.1941,-6.2025,-6.2101,-6.2148,-6.2271,-6.2347,-6.234,-6.2421,-6.2522,-6.262,-6.2749,-6.2852,-6.3071,-6.3107,-6.3227,-6.3209,-6.3365,-6.3227,-6.3231,-6.3215,-6.3209,-6.3223,-6.3393,-6.3397,-6.3401,-6.3404,0,-6.2172,-6.2172,-6.2282,-6.2396,-6.2487,-6.2577,-6.266,-6.2725,-6.2729,-6.2822,-6.2959,-6.3039,-6.3199,-6.3329,-6.3447,-6.3491,-6.3451,-6.3446,-6.3486,-6.3496,-6.349,-6.3498,-6.3027,-6.3436,-6.3433,-6.3431,-6.3429,-6.3428,-6.2429,-6.2537,-6.2614,-6.2739,-6.28,-6.288,-6.2986,-6.3017,-6.3131,-6.326,-6.3248,-6.3401,-6.348,-6.3633,-6.3687,-6.3808,-6.3755,-6.3812,-6.3827,-6.3843,-6.3859,-6.3468,-6.3829,-6.3828,-6.3827,-6.3826,-6.3825,0,-6.2784,-6.283,-6.2945,-6.3063,-6.3162,-6.3112,-6.3202,-6.3289,-6.3423,-6.35,-6.3603,-6.3761,-6.3888,-6.3935,-6.4059,-6.4147,-6.4132,-6.418,-6.4175,-6.4187,-6.3897,-6.3851,-6.4191,-6.4191,-6.4191,-6.4191,-6.4191,-6.4191,-6.2981,-6.3163,-6.3173,-6.3386,-6.3431,-6.3579,-6.3636,-6.371,-6.3771,-6.395,-6.4055,-6.4084,-6.415,-6.4279,-6.4394,-6.4404,-6.4454,-6.4512,-6.4515,-6.4244,-6.4207,-6.4172,-6.4129,-6.4522,-6.4522,-6.4796,-6.4798,-6.48]},{"header":{"parameterUnit":"m.s-1","parameterCategory":1,"la1":30.2991,"la2":30.254,"lo1":-89.0895,"lo2":-89.0444,"dy":0.0017,"dx":0.0017,"nx":28,"ny":28,"refTime":"2023-11-14T03:00:00:Z","depth":0,"parameterNumber":3,"parameterNumberName":"V-component_of_WINDS"},"data":[0,0,0,0,0,0,0,0,0,0,0,0,0,0,0,0,0,0,0,0,0,0,0,0,0,0,0,0,0,0,0,0,0,0,0,0,0,0,0,0,0,0,0,0,0,0,0,0,0,0,0,0,0,0,0,0,0,0,-5.3343,-5.3342,0,-5.3239,-5.3237,-5.3236,-5.3105,-5.3103,-5.31,-5.3098,-5.2991,-5.299,-5.2989,0,0,0,0,0,0,0,0,0,0,0,0,0,-5.3428,-5.3427,-5.3343,-5.3342,-5.3341,-5.3239,-5.3237,-5.3236,-5.3105,-5.3102,-5.31,-5.3097,-5.2991,-5.299,-5.2989,0,0,0,0,0,0,0,0,0,0,0,0,0,-5.3364,-5.3427,-5.3344,-5.3263,-5.3255,-5.3239,-5.3237,-5.3235,-5.3106,-5.3102,-5.3099,-5.3096,-5.2991,-5.299,-5.2989,-5.3043,0,0,-5.2984,-5.2984,0,0,0,0,0,0,0,0,-5.3368,-5.3361,-5.3276,-5.3269,-5.3259,-5.3181,-5.3227,-5.3171,-5.3106,-5.3162,-5.3098,-5.3095,-5.3057,-5.305,-5.3037,-5.3038,-5.3034,-5.2984,-5.2984,-5.2983,-5.2983,0,0,0,0,0,0,0,-5.3372,-5.3365,-5.3302,-5.3275,-5.3265,-5.3231,-5.3219,-5.3216,-5.3128,-5.3157,-5.3147,-5.3137,-5.3051,-5.3039,-5.3033,-5.3032,-5.2984,-5.2983,-5.2982,-5.2982,-5.3069,-5.3072,0,0,0,0,0,0,-5.3389,-5.3369,-5.3305,-5.3299,-5.3307,-5.3233,-5.3219,-5.321,-5.3128,-5.3113,-5.314,-5.3131,-5.3043,-5.3035,-5.3029,-5.3085,-5.2983,-5.2982,-5.2981,-5.3066,-5.307,-5.3073,0,0,0,0,0,0,-5.3391,-5.3385,-5.3309,-5.3331,-5.3319,-5.3234,-5.3226,-5.3209,-5.3196,-5.3115,-5.3098,-5.3143,-5.304,-5.3031,-5.304,-5.308,-5.2981,-5.298,-5.3062,-5.3067,-5.3072,-5.32,0,0,0,0,0,0,-5.3394,-5.3386,-5.3407,-5.3333,-5.3319,-5.3323,-5.3228,-5.3209,-5.3194,-5.3182,-5.3113,-5.3099,-5.3037,-5.3043,-5.3039,-5.3076,-5.2979,-5.3058,-5.3065,-5.307,-5.3192,-5.3209,-5.3223,0,0,0,0,0,-5.3398,-5.3448,-5.3409,-5.3401,-5.3343,-5.3326,-5.3317,-5.3245,-5.3198,-5.3217,-5.3165,-5.3101,-5.3077,-5.3045,-5.3039,-5.3077,-5.3055,-5.3063,-5.307,-5.3185,-5.3206,-5.3223,0,0,0,0,0,0,-5.3529,-5.3437,-5.3392,-5.342,-5.3382,-5.3304,-5.3326,-5.3269,-5.3244,-5.3233,-5.3144,-5.313,-5.3149,-5.3114,-5.308,-5.3124,-5.3056,-5.3063,-5.3146,-5.3165,-5.318,-5.3188,-5.2978,0,0,0,0,0,-5.3561,-5.3556,-5.3475,-5.3507,-5.349,-5.3412,-5.3402,-5.3349,-5.3306,-5.3289,-5.3237,-5.3197,-5.3179,-5.317,-5.315,-5.3186,-5.3168,-5.3209,-5.3225,-5.3238,-5.3244,-5.3258,-5.3275,-5.3096,-5.3096,-5.3096,0,0,-5.3627,-5.3576,-5.3578,-5.3532,-5.3496,-5.3492,-5.3399,-5.3399,-5.3394,-5.3289,-5.3293,-5.3254,-5.3203,-5.3225,-5.3233,-5.3197,-5.3289,-5.3247,-5.3258,-5.3257,-5.3267,-5.3284,-5.3299,-5.3101,-5.31,-5.31,0,0,-5.3746,-5.3707,-5.3728,-5.3694,-5.3641,-5.3588,-5.3594,-5.3524,-5.3493,-5.3496,-5.3417,-5.3409,-5.3382,-5.3349,-5.3328,-5.3432,-5.3371,-5.3428,-5.3509,-5.3523,-5.3537,-5.3549,-5.3584,-5.3598,-5.3434,-5.3435,-5.3435,0,-5.3835,-5.3825,-5.3747,-5.375,-5.3732,-5.3636,-5.3656,-5.3626,-5.357,-5.3558,-5.3519,-5.3481,-5.344,-5.3452,-5.3477,-5.3464,-5.3466,-5.3435,-5.3541,-5.3553,-5.3563,-5.3595,-5.3608,-5.3442,-5.3441,-5.344,-5.3439,0,-5.3936,-5.3931,-5.3954,-5.3901,-5.3885,-5.3897,-5.3819,-5.3812,-5.3761,-5.3712,-5.3715,-5.3662,-5.3629,-5.3628,-5.3578,-5.3632,-5.3611,-5.3558,-5.3488,-5.3588,-5.3617,-5.3628,-5.3452,-5.3449,-5.3447,-5.3445,0,0,-5.4135,-5.4037,-5.4047,-5.402,-5.3954,-5.3948,-5.3955,-5.3921,-5.3916,-5.388,-5.3882,-5.3861,-5.381,-5.3787,-5.3732,-5.3745,-5.3827,-5.369,-5.3687,-5.3716,-5.3881,-5.392,-5.3936,-5.3787,-5.3789,-5.3791,-5.3884,0,-5.4239,-5.4246,-5.4175,-5.4201,-5.4193,-5.4101,-5.4107,-5.4066,-5.402,-5.4006,-5.3955,-5.394,-5.3876,-5.3861,-5.387,-5.3816,-5.3859,-5.3808,-5.3787,-5.3787,-5.3802,-5.3951,-5.3994,-5.4085,-5.3895,-5.3897,-5.3899,0,-5.4363,-5.4333,-5.4358,-5.4288,-5.4282,-5.4289,-5.4251,-5.424,-5.4191,-5.4156,-5.413,-5.4066,-5.4066,-5.4001,-5.3998,-5.3965,-5.3952,-5.3924,-5.3925,-5.392,-5.3849,-5.3949,-5.4112,-5.4125,-5.3916,-5.3915,-5.3913,0,-5.4503,-5.4469,-5.4478,-5.4459,-5.4378,-5.4385,-5.4351,-5.4299,-5.4283,-5.425,-5.4238,-5.4207,-5.4189,-5.4165,-5.4093,-5.4053,-5.4098,-5.4028,-5.4068,-5.407,-5.4082,-5.4082,-5.4244,-5.4076,-5.4076,-5.4075,-5.4075,0,-5.4627,-5.4645,-5.454,-5.4546,-5.4563,-5.4481,-5.45,-5.4457,-5.4411,-5.4406,-5.4325,-5.4321,-5.4228,-5.4214,-5.4158,-5.4163,-5.4156,-5.4127,-5.4112,-5.4134,-5.4137,-5.4123,-5.4115,-5.4079,-5.4078,-5.4077,-5.4077,0,-5.4787,-5.4717,-5.4721,-5.4644,-5.4625,-5.4641,-5.4574,-5.4576,-5.4524,-5.4518,-5.4512,-5.4431,-5.441,-5.4336,-5.4297,-5.4259,-5.4282,-5.4253,-5.4298,-5.4288,-5.4332,-5.4329,-5.4491,-5.4507,-5.433,-5.4332,-5.4334,0,-5.487,-5.4882,-5.4805,-5.4796,-5.4766,-5.4753,-5.4735,-5.4654,-5.4639,-5.4583,-5.4591,-5.4563,-5.4536,-5.4506,-5.4443,-5.4412,-5.4381,-5.444,-5.4376,-5.4397,-5.438,-5.438,-5.4379,-5.4454,-5.4456,-5.4458,-5.446,0,-5.5024,-5.4988,-5.4967,-5.4934,-5.4916,-5.4885,-5.485,-5.4847,-5.4755,-5.4743,-5.472,-5.4699,-5.4658,-5.4631,-5.4589,-5.4553,-5.4491,-5.448,-5.4487,-5.451,-5.4535,-5.452,-5.4335,-5.4477,-5.4475,-5.4474,-5.4473,-5.4472,-5.5146,-5.5152,-5.5099,-5.5077,-5.5042,-5.501,-5.5007,-5.4955,-5.4934,-5.4895,-5.4848,-5.483,-5.4778,-5.4715,-5.4683,-5.4667,-5.4633,-5.4645,-5.4647,-5.4651,-5.4661,-5.4538,-5.466,-5.4659,-5.4658,-5.4658,-5.4657,0,-5.5295,-5.5256,-5.5237,-5.519,-5.5172,-5.5116,-5.5073,-5.5062,-5.5047,-5.5004,-5.4979,-5.4952,-5.4924,-5.4858,-5.4824,-5.4824,-5.4794,-5.4817,-5.4816,-5.4808,-5.4694,-5.469,-5.4842,-5.4842,-5.4842,-5.4841,-5.4841,-5.4841,-5.537,-5.5376,-5.5334,-5.532,-5.528,-5.5263,-5.5243,-5.5213,-5.5177,-5.5151,-5.5127,-5.5085,-5.5031,-5.4992,-5.4963,-5.4944,-5.4935,-5.4967,-5.4939,-5.4834,-5.4816,-5.48,-5.4795,-5.4966,-5.4967,-5.5054,-5.5054,-5.5055]}]]